When you browse on this site, cookies collect data to enhance your experience and personalize the content and advertising you see.
Visit our Privacy Policy to learn more. By continuing to use the site, you agree to this use of cookies and data.
  • In Czech Republic
  • List of Countries
  • For 7 days
  • Water Temperature
  • Weather Map
  • Weather Widgets
  • user-avatar
    Login

    Hourly Weather Warburg

    Today, 23 February, Sunday

    Time Temperature Precipitation Wind Pressure Humidity
    00:00 +7°C° 0.5 mm 6 mps 743 mmHg 86%
    01:00 +7°C° 0 mm 4 mps 744 mmHg 88%
    02:00 +7°C° 0.4 mm 5 mps 743 mmHg 88%
    03:00 +7°C° 0.4 mm 5 mps 743 mmHg 87%
    04:00 +5°C° 0.4 mm 6 mps 742 mmHg 87%
    05:00 +5°C° 0.6 mm 6 mps 742 mmHg 88%
    06:00 +6°C° 0.6 mm 5 mps 741 mmHg 88%
    07:00 +5°C° 0 mm 6 mps 741 mmHg 87%
    08:00 +6°C° 1.2 mm 5 mps 740 mmHg 88%
    09:00 +6°C° 1.2 mm 5 mps 738 mmHg 90%
    10:00 +6°C° 1.2 mm 5 mps 737 mmHg 92%
    11:00 +8°C° 1.7 mm 7 mps 736 mmHg 89%
    12:00 +8°C° 1.7 mm 9 mps 735 mmHg 86%
    13:00 +9°C° 1.7 mm 12 mps 734 mmHg 83%
    14:00 +9°C° 1.6 mm 12 mps 734 mmHg 83%
    15:00 +9°C° 1.6 mm 12 mps 734 mmHg 84%
    16:00 +9°C° 1.6 mm 12 mps 733 mmHg 84%
    17:00 +8°C° 0.6 mm 12 mps 735 mmHg 81%
    18:00 +7°C° 0.6 mm 12 mps 736 mmHg 78%
    19:00 +4°C° 0.6 mm 11 mps 738 mmHg 75%
    20:00 +3°C° 0.1 mm 10 mps 739 mmHg 75%
    21:00 +2°C° 0.1 mm 9 mps 741 mmHg 75%
    22:00 0°C° 0.1 mm 8 mps 742 mmHg 75%
    23:00 0°C° 0 mm 7 mps 743 mmHg 77%

    Tomorrow, 24 February, Monday

    Time Temperature Precipitation Wind Pressure Humidity
    00:00 +1°C° 0 mm 6 mps 744 mmHg 78%
    01:00 0°C° 0 mm 5 mps 746 mmHg 79%
    02:00 0°C° 0 mm 5 mps 746 mmHg 80%
    03:00 0°C° 0 mm 4 mps 746 mmHg 81%
    04:00 0°C° 0 mm 4 mps 746 mmHg 82%
    05:00 0°C° 0 mm 3 mps 746 mmHg 83%
    06:00 0°C° 0 mm 3 mps 746 mmHg 84%
    07:00 0°C° 0 mm 3 mps 746 mmHg 85%
    08:00 +1°C° 0 mm 3 mps 745 mmHg 81%
    09:00 +2°C° 0 mm 3 mps 745 mmHg 77%
    10:00 +3°C° 0 mm 3 mps 745 mmHg 74%
    11:00 +1°C° 0.4 mm 4 mps 743 mmHg 78%
    12:00 +1°C° 0.4 mm 4 mps 742 mmHg 83%
    13:00 +1°C° 0.4 mm 5 mps 741 mmHg 87%
    14:00 +2°C° 0.2 mm 5 mps 740 mmHg 87%
    15:00 +4°C° 0.2 mm 6 mps 738 mmHg 88%
    16:00 +5°C° 0.2 mm 6 mps 737 mmHg 88%
    17:00 +7°C° 0.1 mm 6 mps 736 mmHg 87%
    18:00 +7°C° 0.1 mm 6 mps 735 mmHg 87%
    19:00 +8°C° 0.1 mm 6 mps 734 mmHg 87%
    20:00 +8°C° 0.3 mm 7 mps 733 mmHg 86%
    21:00 +8°C° 0.3 mm 7 mps 733 mmHg 85%
    22:00 +7°C° 0.3 mm 8 mps 732 mmHg 85%
    23:00 +8°C° 0.2 mm 7 mps 732 mmHg 85%

    Day after tomorrow, 25 February, Tuesday

    Time Temperature Precipitation Wind Pressure Humidity
    00:00 +8°C° 0.2 mm 7 mps 731 mmHg 85%
    01:00 +8°C° 0.2 mm 7 mps 731 mmHg 85%
    02:00 +6°C° 0.1 mm 7 mps 731 mmHg 84%
    03:00 +7°C° 0.1 mm 6 mps 730 mmHg 83%
    04:00 +5°C° 0.1 mm 6 mps 730 mmHg 81%
    05:00 +4°C° 0 mm 6 mps 730 mmHg 80%
    06:00 +4°C° 0 mm 6 mps 730 mmHg 79%
    07:00 +3°C° 0 mm 6 mps 730 mmHg 78%
    08:00 +3°C° 0 mm 7 mps 730 mmHg 75%
    09:00 +3°C° 0 mm 7 mps 730 mmHg 72%
    10:00 +2°C° 0 mm 8 mps 730 mmHg 69%
    11:00 +2°C° 0 mm 8 mps 730 mmHg 65%
    12:00 +3°C° 0 mm 9 mps 730 mmHg 61%
    13:00 +5°C° 0 mm 9 mps 730 mmHg 57%
    14:00 +3°C° 0.1 mm 9 mps 729 mmHg 57%
    15:00 +3°C° 0.1 mm 9 mps 729 mmHg 58%
    16:00 +4°C° 0.1 mm 8 mps 729 mmHg 58%
    17:00 +3°C° 0 mm 7 mps 729 mmHg 63%
    18:00 +2°C° 0 mm 6 mps 729 mmHg 69%
    19:00 +1°C° 0 mm 4 mps 729 mmHg 74%
    20:00 0°C° 0 mm 4 mps 729 mmHg 75%
    21:00 0°C° 0 mm 4 mps 729 mmHg 76%
    22:00 0°C° 0 mm 4 mps 728 mmHg 76%
    23:00 0°C° 0 mm 4 mps 728 mmHg 79%

    26 February, Wednesday

    Time Temperature Precipitation Wind Pressure Humidity
    00:00 -1°C° 0 mm 4 mps 727 mmHg 82%
    01:00 -1°C° 0 mm 4 mps 726 mmHg 86%
    02:00 -1°C° 1 mm 4 mps 725 mmHg 88%
    03:00 0°C° 1 mm 5 mps 724 mmHg 90%
    04:00 -1°C° 1 mm 6 mps 723 mmHg 93%
    05:00 -1°C° 0.1 mm 5 mps 723 mmHg 90%
    06:00 -2°C° 0.1 mm 5 mps 723 mmHg 88%
    07:00 -2°C° 0.1 mm 5 mps 723 mmHg 85%
    08:00 -3°C° 0 mm 6 mps 723 mmHg 81%
    09:00 -2°C° 0 mm 6 mps 724 mmHg 76%
    10:00 -1°C° 0 mm 7 mps 724 mmHg 72%
    11:00 -1°C° 0.1 mm 7 mps 724 mmHg 73%
    12:00 -1°C° 0.1 mm 7 mps 725 mmHg 73%
    13:00 -1°C° 0.1 mm 6 mps 725 mmHg 74%
    14:00 -1°C° 0.1 mm 6 mps 726 mmHg 77%
    15:00 0°C° 0.1 mm 5 mps 726 mmHg 79%
    16:00 0°C° 0.1 mm 5 mps 727 mmHg 81%
    17:00 0°C° 0.1 mm 5 mps 728 mmHg 83%
    18:00 0°C° 0.1 mm 4 mps 729 mmHg 84%
    19:00 -1°C° 0.1 mm 4 mps 730 mmHg 85%
    20:00 -1°C° 0 mm 4 mps 730 mmHg 86%
    21:00 -1°C° 0 mm 5 mps 731 mmHg 87%
    22:00 -1°C° 0 mm 5 mps 732 mmHg 88%
    23:00 -1°C° 0 mm 5 mps 732 mmHg 88%

    27 February, Thursday

    Time Temperature Precipitation Wind Pressure Humidity
    00:00 -1°C° 0 mm 5 mps 733 mmHg 89%
    01:00 -1°C° 0 mm 5 mps 733 mmHg 90%
    02:00 -1°C° 0 mm 5 mps 733 mmHg 89%
    03:00 -1°C° 0 mm 5 mps 733 mmHg 88%
    04:00 -1°C° 0 mm 5 mps 734 mmHg 88%
    05:00 -2°C° 0 mm 4 mps 734 mmHg 88%
    06:00 -2°C° 0 mm 4 mps 734 mmHg 89%
    07:00 -1°C° 0 mm 3 mps 735 mmHg 90%
    08:00 -2°C° 0 mm 4 mps 735 mmHg 85%
    09:00 -1°C° 0 mm 4 mps 735 mmHg 80%
    10:00 0°C° 0 mm 4 mps 735 mmHg 75%
    11:00 +1°C° 0 mm 5 mps 734 mmHg 72%
    12:00 +1°C° 0 mm 5 mps 733 mmHg 69%
    13:00 +2°C° 0 mm 6 mps 732 mmHg 67%
    14:00 +1°C° 0.1 mm 6 mps 731 mmHg 73%
    15:00 -1°C° 0.1 mm 6 mps 730 mmHg 80%
    16:00 -2°C° 0.1 mm 6 mps 728 mmHg 87%
    17:00 -2°C° 1.1 mm 7 mps 726 mmHg 90%
    18:00 -2°C° 1.1 mm 7 mps 725 mmHg 92%
    19:00 -2°C° 1.1 mm 8 mps 723 mmHg 95%
    20:00 -1°C° 0.6 mm 8 mps 722 mmHg 93%
    21:00 +1°C° 0.6 mm 8 mps 721 mmHg 92%
    22:00 +2°C° 0.6 mm 9 mps 720 mmHg 90%
    23:00 +1°C° 0.1 mm 10 mps 721 mmHg 89%

    28 February, Friday

    Time Temperature Precipitation Wind Pressure Humidity
    00:00 -1°C° 0.1 mm 12 mps 722 mmHg 88%
    01:00 -4°C° 0.1 mm 13 mps 723 mmHg 87%
    02:00 -3°C° 0.1 mm 12 mps 724 mmHg 87%
    03:00 -3°C° 0.1 mm 10 mps 726 mmHg 87%
    04:00 -3°C° 0.1 mm 9 mps 728 mmHg 87%
    05:00 -2°C° 0.2 mm 8 mps 729 mmHg 89%
    06:00 -2°C° 0.2 mm 8 mps 731 mmHg 90%
    07:00 -2°C° 0.2 mm 7 mps 732 mmHg 92%
    08:00 -1°C° 0.1 mm 6 mps 733 mmHg 88%
    09:00 -1°C° 0.1 mm 6 mps 733 mmHg 85%
    10:00 +1°C° 0.1 mm 5 mps 734 mmHg 81%
    11:00 +1°C° 0 mm 5 mps 733 mmHg 80%
    12:00 +2°C° 0 mm 5 mps 733 mmHg 79%
    13:00 +2°C° 0 mm 5 mps 733 mmHg 78%
    14:00 +3°C° 0 mm 5 mps 732 mmHg 78%
    15:00 +3°C° 0 mm 5 mps 731 mmHg 79%
    16:00 +3°C° 0 mm 5 mps 731 mmHg 80%
    17:00 +2°C° 0 mm 5 mps 730 mmHg 83%
    18:00 +3°C° 0 mm 4 mps 729 mmHg 85%
    19:00 +2°C° 0 mm 3 mps 728 mmHg 88%
    20:00 +2°C° 0.5 mm 3 mps 727 mmHg 91%
    21:00 +2°C° 0.5 mm 3 mps 726 mmHg 94%
    22:00 +1°C° 0.5 mm 4 mps 725 mmHg 96%
    23:00 +3°C° 2.8 mm 4 mps 723 mmHg 96%
    Show more